Tracking 20228 objects as of 17-Jan-2020
HD Live streaming from Space Station
objects crossing your sky now

DELTA 1 DEB

Track DELTA 1 DEB now!
10-day predictions


NORAD ID: 37642
Int'l Code: 1978-026JD
Perigee: 554.3 km
Apogee: 600.0 km
Inclination: 98.2 °
Period: 96.1 minutes
Semi major axis: 6948 km
RCS: 0.0079 m2 (small)
Launch date: March 5, 1978
Source: United States (US)
Launch site: AIR FORCE WESTERN TEST RANGE (AFWTR)

Note: This is SATELLITE DEBRIS
aabbcc
Your satellite tracking list
Your tracking list is empty




NASA's NSSDC Master Catalog

Two Line Element Set (TLE):
1 37642U 78026JD  20016.49923068 +.00001429 +00000-0 +12224-3 0  9995
2 37642 098.1964 211.9382 0032875 241.7391 118.0511 14.99000910411331
Source of the keplerian elements: AFSPC